Regional Weather Roundup
Issued by NWS

Home | Current Version | Previous Version | Graphics & Text | Print | Product List | Glossary On
Versions: 1 2 3 4 5 6 7 8 9 10 11 12 13 14 15 16 17 18 19 20 21 22 23 24 25 26 27 28 29 30 31 32 33 34 35 36 37 38 39 40 41 42 43 44 45 46 47 48 49 50
000
ASUS43 KLOT 260604
RWRIL

ILLINOIS REGIONAL WEATHER ROUNDUP
NATIONAL WEATHER SERVICE CHICAGO/ROMEOVILLE IL
100 AM CDT MON JUN 26 2017

NOTE: "FAIR" INDICATES FEW OR NO CLOUDS BELOW 12,000 FEET WITH NO
SIGNIFICANT WEATHER AND/OR OBSTRUCTIONS TO VISIBILITY.

* THESE STATIONS ARE NOT UNDER NWS QUALITY CONTROL. THEY ALSO MAY NOT
  REPORT WEATHER SUCH AS PRECIPITATION OR FOG.

ILZ001-002-007-009-015-016-024-260700-
NORTHWEST ILLINOIS

CITY           SKY/WX    TMP DP  RH WIND       PRES   REMARKS
MOLINE         PTCLDY    54  48  80 SW3       30.15S
6HR MIN TEMP:  54; 6HR MAX TEMP:  70;

STERLING*      CLEAR     55  51  86 SW3       30.14S
SAVANNA*       CLEAR     53  49  89 CALM      30.13S
$$

ILZ003-004-008-010-011-017-018-260700-
NORTH CENTRAL ILLINOIS

CITY           SKY/WX    TMP DP  RH WIND       PRES   REMARKS
ROCKFORD       CLEAR     55  50  83 W5        30.13F
6HR MIN TEMP:  55; 6HR MAX TEMP:  67;

FREEPORT*      CLEAR     53  48  83 W5        30.14S
ROCHELLE*      PTCLDY    52  49  91 W5        30.13F
DE KALB*       CLEAR     57  50  77 W7        30.12F
PERU*          CLEAR     53  48  85 W7        30.14F
$$

ILZ005-006-012>014-019>023-260700-
NORTHEAST ILLINOIS

CITY           SKY/WX    TMP DP  RH WIND       PRES   REMARKS
CHICAGO-OHARE  PTCLDY    57  49  74 W3        30.10F
6HR MIN TEMP:  57; 6HR MAX TEMP:  68;

CHICAGO-MIDWAY PTCLDY    60  50  69 W3        30.11S
6HR MIN TEMP:  60; 6HR MAX TEMP:  70;

AURORA         CLEAR     54  50  86 W5        30.12F
6HR MIN TEMP:  54; 6HR MAX TEMP:  65;

LANSING*       CLEAR     58  48  68 W3        30.12R
JOLIET*        PTCLDY    58  51  77 W3        30.12F
WAUKEGAN       CLEAR     55  52  89 VRB3      30.09S
6HR MIN TEMP:  55; 6HR MAX TEMP:  65; 6HR PCP:  0.08;

DUPAGE AIRPORT CLEAR     56  51  84 W6        30.10F
6HR MIN TEMP:  56; 6HR MAX TEMP:  66;

WHEELING       PTCLDY    57  52  83 W3        30.12S
6HR MIN TEMP:  57; 6HR MAX TEMP:  67; 6HR PCP: TRACE;

MORRIS*        CLEAR     53  49  85 W5        30.12S
ROMEOVILLE*    PTCLDY    56  47  72 W6        30.12S
NORTHERLY ISL    N/A     61  48  62 W1          N/A
$$

LMZ740>746-260700-
SOUTHERN LAKE MICHIGAN

STATION/POSITION SKY/WX   TEMP    WIND        PRES    VSBY  WAVE
                          AIR SEA DIR/SP/G                  HT/PER
                          (F)     (DEG/KT/KT) (MB)    (MI)  (FT/S)
SOUTHERN BUOY              60 61  310/ 17/ 21 1017.9          3/ 5
WILMETTE HARBOR            60 64  280/ 12/ 17   N/A           2/ 3
HARRISON CRIB              62     290/ 11/ 12   N/A
BURNHAM HARBOR             60                   N/A
CALUMET HARBOR             61     290/  4/  7 1019.0F
BURNS HARBOR               63     310/ 15/ 24 1019.3S
MICHIGAN CITY              61     280/ 20/ 22   N/A
MICHIGAN CITY 6N           63 66  300/ 14/ 17   N/A           5/ 5
ST. JOSEPH                 63 69  310/ 17/ 21 1018.4F         6/ 5
$$

ILZ025>027-034>036-040-047-049-050-058-095>099-260700-
WEST-CENTRAL ILLINOIS

CITY           SKY/WX    TMP DP  RH WIND       PRES   REMARKS
QUINCY         CLEAR     55  49  80 SW5       30.19S
GALESBURG*     CLEAR     52  49  89 CALM      30.18S
MACOMB*        CLEAR     52  48  87 W7        30.20R
JACKSONVILLE*  CLEAR     55  48  77 W5        30.19R
PITTSFIELD*    CLEAR     57  52  82 W3        30.20F
$$

ILZ028>032-037-038-041>044-048-051>054-059>061-260700-
CENTRAL ILLINOIS

CITY           SKY/WX    TMP DP  RH WIND       PRES   REMARKS
PONTIAC        CLEAR     56  53  89 W3        30.15F
BLOOMINGTON    CLEAR     56  51  84 W3        30.17S
DECATUR        CLEAR     60  48  64 CALM      30.18R
PEORIA         CLEAR     55  51  86 CALM      30.16S
6HR MIN TEMP:  55; 6HR MAX TEMP:  71;

LACON*         PTCLDY    52  51  96 CALM      30.14F
LINCOLN*       CLEAR     57  50  77 CALM      30.17S
SPRINGFIELD    CLEAR     56  50  80 SW3       30.18S
6HR MIN TEMP:  55; 6HR MAX TEMP:  74;

TAYLORVILLE    CLEAR     55  49  81 CALM      30.18F
6HR MIN TEMP:  53; 6HR MAX TEMP:  72;

$$

ILZ033-039-045-046-055>057-062-063-260700-
EAST-CENTRAL ILLINOIS

CITY           SKY/WX    TMP DP  RH WIND       PRES   REMARKS
CHAMPAIGN        N/A    N/A N/A N/A MISG      30.17S
RANTOUL*       PTCLDY    55  51  87 CALM      30.16S
MATTOON        CLEAR     57  50  77 W5        30.17S
$$

ILZ079-100>102-260700-
SOUTHWEST ILLINOIS

CITY           SKY/WX    TMP DP  RH WIND       PRES   REMARKS
ALTON          CLEAR     55  52  89 NW3       30.20R
BELLEVILLE     CLEAR     58  52  79 CALM      30.21R
CAHOKIA*       CLEAR     60  49  66 S3        30.20R
SPARTA*        CLOUDY    65  48  53 CALM      30.21S
$$

ILZ064>066-069>071-074>076-080>082-084>086-088>090-092>094-260700-
SOUTH-CENTRAL ILLINOIS

CITY           SKY/WX    TMP DP  RH WIND       PRES   REMARKS
CARBONDALE     CLOUDY    67  57  70 CALM      30.19S
6HR MIN TEMP:  66; 6HR MAX TEMP:  80;

CAIRO*         CLOUDY    69  58  68 CALM      30.18S
EFFINGHAM*     CLEAR     56  52  89 CALM      30.19F
MARION         CLOUDY    66  57  72 CALM      30.20S
MT. VERNON     CLEAR     54  53  97 CALM      30.19S
CENTRALIA*     CLEAR     56  54  91 CALM      30.19R
SALEM*         CLEAR     58  51  78 CALM      30.19R
METROPOLIS*    CLOUDY    67  59  76 N3        30.19R
$$

ILZ067-068-072-073-078-083-087-091-260700-
SOUTHEAST ILLINOIS

CITY           SKY/WX    TMP DP  RH WIND       PRES   REMARKS
LAWRENCEVILLE  CLEAR     59  54  83 CALM      30.18S
FLORA*         CLEAR     57  51  82 CALM      30.19S
FAIRFIELD*     CLEAR     57  52  84 CALM      30.18S
HARRISBURG*    MOCLDY    66  52  61 CALM      30.19S
ROBINSON*      CLEAR     55  50  83 W3        30.18S
CARMI*         PTCLDY    60  55  82 CALM      30.18F
$$

ABBREVIATIONS USED IN REMARKS
   TC - TEMPERATURE IN CELSIUS
  WCI - WIND CHILL INDEX
   HX - HEAT INDEX
  VSB - VISIBILITY
$$




USA.gov is the U.S. government's official web portal to all federal, state and local government web resources and services.